DJ8HS-13 Weather Reports


time (UTC)temp
C
wind
direction
speed
KPH
gust
KPH
rain 1hr
cm
rain 24hr
cm
rain mn
cm
humidity
%
barometer
mb
20260506050930 13 146 0.0 3.2 0.00 0.20 0.18 88
20260506050430 13 167 0.0 1.6 0.00 0.20 0.18 88
20260506044930 13 140 0.0 0.0 0.00 0.20 0.18 88
20260506044430 13 140 0.0 1.6 0.00 0.20 0.18 88
20260506043930 13 139 0.0 3.2 0.00 0.20 0.18 88
20260506043430 13 158 0.0 0.0 0.00 0.20 0.18 88
20260506042930 13 158 0.0 1.6 0.00 0.20 0.18 88
20260506042430 13 188 0.0 3.2 0.00 0.20 0.18 88
20260506041930 13 195 0.0 0.0 0.00 0.20 0.18 88
20260506041430 13 195 0.0 4.8 0.00 0.20 0.18 88
20260506040930 13 167 0.0 3.2 0.00 0.20 0.18 88
20260506040430 13 171 0.0 1.6 0.00 0.20 0.18 88
20260506035930 13 198 0.0 1.6 0.00 0.20 0.18 88
20260506035430 13 163 0.0 4.8 0.00 0.20 0.18 88
20260506034930 13 165 0.0 4.8 0.00 0.20 0.18 87
20260506034430 13 157 0.0 8.0 0.00 0.20 0.18 87
20260506033930 13 181 4.8 8.0 0.00 0.20 0.18 87
20260506033430 13 180 0.0 0.0 0.00 0.20 0.18 87
20260506032930 13 180 0.0 0.0 0.00 0.20 0.18 87
20260506032430 13 180 0.0 0.0 0.00 0.20 0.18 87
20260506031930 13 180 0.0 0.0 0.00 0.20 0.18 87
20260506031430 13 180 0.0 1.6 0.00 0.20 0.18 87
20260506030930 13 194 0.0 1.6 0.00 0.20 0.18 87
20260506030430 13 135 0.0 0.0 0.00 0.20 0.18 87
20260506025930 13 135 0.0 4.8 0.00 0.20 0.18 87
20260506025430 13 130 0.0 0.0 0.00 0.20 0.18 86
20260506024930 13 130 0.0 1.6 0.00 0.20 0.18 86
20260506024430 13 130 0.0 0.0 0.00 0.20 0.18 86
20260506023930 13 130 0.0 0.0 0.00 0.20 0.18 86
20260506023430 13 130 0.0 0.0 0.00 0.20 0.18 86
20260506022930 13 130 0.0 0.0 0.00 0.20 0.18 86
20260506022430 13 130 0.0 0.0 0.00 0.20 0.18 86
20260506021930 13 130 0.0 0.0 0.00 0.20 0.18 86
20260506021430 13 130 0.0 0.0 0.00 0.20 0.18 86
20260506020930 13 130 0.0 0.0 0.00 0.20 0.18 86
20260506020430 13 130 0.0 0.0 0.00 0.20 0.18 86
20260506015930 13 130 0.0 0.0 0.00 0.20 0.18 86
20260506015430 13 130 0.0 0.0 0.00 0.20 0.18 86
20260506014930 13 130 0.0 0.0 0.00 0.20 0.18 86
20260506014430 13 130 0.0 0.0 0.00 0.20 0.18 86
20260506013931 13 130 0.0 0.0 0.00 0.20 0.18 86
20260506013431 13 130 0.0 0.0 0.00 0.20 0.18 86
20260506012931 13 130 0.0 0.0 0.00 0.20 0.18 86
20260506012431 13 130 0.0 0.0 0.00 0.20 0.18 85
20260506011931 13 130 0.0 0.0 0.00 0.20 0.18 85
20260506011431 13 130 0.0 0.0 0.00 0.20 0.18 85
20260506010931 13 130 0.0 0.0 0.00 0.20 0.18 85
20260506010431 13 130 0.0 0.0 0.00 0.20 0.18 85
20260506005931 13 130 0.0 0.0 0.00 0.20 0.18 85
20260506005431 14 130 0.0 0.0 0.00 0.20 0.18 86
20260506004931 14 130 0.0 0.0 0.00 0.20 0.18 86
20260506004431 14 130 0.0 0.0 0.00 0.20 0.18 86
20260506003931 14 130 0.0 0.0 0.00 0.20 0.18 86
20260506003431 14 130 0.0 0.0 0.00 0.20 0.18 86
20260506002931 14 130 0.0 0.0 0.00 0.20 0.18 87
20260506002431 14 130 0.0 0.0 0.00 0.20 0.18 87
20260506001931 15 130 0.0 0.0 0.00 0.20 0.18 87
20260506001431 15 130 0.0 3.2 0.00 0.20 0.18 87
20260506000931 15 146 0.0 6.4 0.00 0.20 0.18 87
20260506000431 15 168 0.0 0.0 0.03 0.20 0.18 87
20260505235931 15 175 0.0 6.4 0.03 0.20 0.18 87
20260505235431 15 191 4.8 4.8 0.03 0.20 0.18 87
20260505234931 15 181 1.6 6.4 0.03 0.20 0.18 87
20260505234431 15 144 0.0 6.4 0.03 0.20 0.18 87
20260505233931 15 185 3.2 8.0 0.03 0.20 0.18 87
20260505233431 15 188 0.0 6.4 0.03 0.20 0.18 87
20260505232931 15 196 1.6 4.8 0.05 0.20 0.18 87
20260505232431 15 244 3.2 4.8 0.10 0.20 0.18 87
20260505231931 15 160 0.0 1.6 0.10 0.20 0.18 86
20260505231431 15 112 0.0 6.4 0.10 0.20 0.18 86
20260505230931 15 201 3.2 3.2 0.10 0.20 0.18 86
20260505230431 15 158 0.0 3.2 0.08 0.18 0.15 86
20260505225931 15 180 0.0 8.0 0.08 0.18 0.15 86
20260505225431 15 216 0.0 3.2 0.10 0.18 0.15 86
20260505224931 15 206 0.0 4.8 0.10 0.18 0.15 85
20260505224431 15 177 0.0 4.8 0.10 0.18 0.15 85
20260505223931 15 181 0.0 6.4 0.10 0.18 0.15 85
20260505223431 15 168 0.0 3.2 0.10 0.18 0.15 85
20260505222931 15 139 0.0 6.4 0.08 0.15 0.13 84
20260505222431 15 194 1.6 6.4 0.03 0.10 0.08 84
20260505221931 15 163 1.6 3.2 0.03 0.10 0.08 84
20260505221431 15 196 0.0 0.0 0.03 0.10 0.08 84
20260505220931 15 196 0.0 0.0 0.03 0.10 0.08 84
20260505220431 15 196 0.0 0.0 0.03 0.10 0.08 84
20260505215931 15 196 0.0 0.0 0.03 0.10 0.08 83
20260505215431 15 196 0.0 3.2 0.00 0.08 0.05 83
20260505214931 16 153 0.0 0.0 0.00 0.08 0.05 83
20260505214431 16 153 0.0 0.0 0.00 0.08 0.05 83
20260505213931 15 153 0.0 1.6 0.00 0.08 0.05 83
20260505213431 15 240 0.0 0.0 0.00 0.08 0.05 82
20260505212931 16 240 0.0 0.0 0.00 0.08 0.05 82
20260505212431 16 240 0.0 0.0 0.00 0.08 0.05 82
20260505211931 16 240 0.0 0.0 0.00 0.08 0.05 82
20260505211431 16 240 0.0 0.0 0.00 0.08 0.05 82
20260505210931 16 240 0.0 0.0 0.00 0.08 0.05 82
20260505210431 16 240 0.0 0.0 0.00 0.08 0.05 82
20260505205931 16 240 0.0 0.0 0.00 0.08 0.05 82
20260505205431 16 240 0.0 0.0 0.00 0.08 0.05 82
20260505204931 16 240 0.0 0.0 0.00 0.08 0.05 82
20260505204431 16 240 0.0 0.0 0.00 0.08 0.05 82
20260505203931 16 240 0.0 0.0 0.00 0.08 0.05 82
20260505203431 16 240 0.0 0.0 0.00 0.08 0.05 82
20260505202931 16 240 0.0 0.0 0.00 0.08 0.05 81
20260505202431 16 240 0.0 0.0 0.00 0.08 0.05 81
20260505201931 16 240 0.0 0.0 0.00 0.08 0.05 81
20260505201431 16 240 0.0 0.0 0.00 0.08 0.05 81
20260505200931 16 240 0.0 0.0 0.00 0.08 0.05 81
20260505200431 16 240 0.0 0.0 0.00 0.08 0.05 81
20260505195931 16 240 0.0 0.0 0.00 0.08 0.05 81
20260505195431 16 240 0.0 0.0 0.00 0.08 0.05 81
20260505194931 16 240 0.0 0.0 0.00 0.08 0.05 80
20260505194431 16 240 0.0 0.0 0.00 0.08 0.05 80
20260505193931 16 240 0.0 0.0 0.00 0.08 0.05 80
20260505193431 16 240 0.0 0.0 0.00 0.08 0.05 80
20260505192931 16 240 0.0 0.0 0.00 0.08 0.05 80
20260505192431 16 240 0.0 0.0 0.00 0.08 0.05 80
20260505191931 16 240 0.0 0.0 0.00 0.08 0.05 80
20260505191431 16 240 0.0 0.0 0.00 0.08 0.05 79
20260505190931 16 240 0.0 0.0 0.00 0.08 0.05 79
20260505190431 16 240 0.0 0.0 0.00 0.08 0.05 78
20260505185931 16 240 0.0 0.0 0.00 0.08 0.05 78
20260505185431 16 240 0.0 0.0 0.00 0.08 0.05 78
20260505184931 16 240 0.0 0.0 0.00 0.08 0.05 78
20260505184431 16 240 0.0 0.0 0.00 0.08 0.05 78
20260505183931 16 240 0.0 0.0 0.00 0.08 0.05 77
20260505183431 16 240 0.0 0.0 0.00 0.08 0.05 77
20260505182931 17 240 0.0 0.0 0.00 0.08 0.05 77
20260505182431 17 240 0.0 0.0 0.00 0.08 0.05 77
20260505181931 17 240 0.0 0.0 0.00 0.08 0.05 76
20260505181432 17 240 0.0 0.0 0.00 0.08 0.05 76
20260505180932 17 240 0.0 0.0 0.00 0.08 0.05 76
20260505180432 17 240 0.0 0.0 0.00 0.08 0.05 76
20260505175931 17 240 0.0 0.0 0.00 0.08 0.05 75
20260505175432 17 240 0.0 0.0 0.00 0.08 0.05 75
20260505174932 17 240 0.0 0.0 0.00 0.08 0.05 75
20260505174432 17 240 0.0 0.0 0.00 0.08 0.05 75
20260505173932 17 240 0.0 0.0 0.00 0.08 0.05 74
20260505173432 17 240 0.0 0.0 0.00 0.08 0.05 74
20260505172932 17 240 0.0 0.0 0.00 0.08 0.05 74
20260505172432 17 240 0.0 0.0 0.00 0.08 0.05 73
20260505171932 17 240 0.0 0.0 0.00 0.08 0.05 73
20260505171432 17 240 0.0 0.0 0.00 0.08 0.05 73
20260505170932 17 240 0.0 0.0 0.03 0.08 0.05 73
20260505170432 17 240 0.0 0.0 0.03 0.08 0.05 73
20260505165932 17 240 0.0 3.2 0.03 0.08 0.05 73
20260505165432 17 284 0.0 0.0 0.03 0.08 0.05 74
20260505164932 17 284 0.0 0.0 0.03 0.08 0.05 74
20260505164432 17 284 0.0 1.6 0.05 0.08 0.05 74
20260505163932 17 285 0.0 0.0 0.05 0.08 0.05 73
20260505163432 17 285 0.0 1.6 0.05 0.08 0.05 73
20260505162932 18 247 0.0 0.0 0.05 0.08 0.05 73
20260505162432 18 247 0.0 0.0 0.05 0.08 0.05 73
20260505161932 18 247 0.0 0.0 0.05 0.08 0.05 72
20260505161432 18 247 0.0 1.6 0.05 0.08 0.05 72
20260505160932 18 253 0.0 0.0 0.03 0.05 0.03 72
20260505160432 18 271 0.0 1.6 0.03 0.05 0.03 72
20260505152932 18 213 0.0 4.8 0.03 0.03 0.00 69
20260505152432 18 244 4.8 6.4 0.03 0.03 0.00 69
20260505151932 18 230 3.2 8.0 0.03 0.03 0.03 68
20260505151432 19 236 4.8 6.4 0.03 0.03 0.03 67
20260505150932 19 257 0.0 6.4 0.03 0.03 0.03 67
20260505150432 19 205 0.0 6.4 0.03 0.03 0.03 67
20260505140432 20 278 0.0 6.4 0.00 0.00 0.00 60
20260505124932 23 243 0.0 8.0 0.00 0.00 0.00 47
20260505124432 23 265 1.6 9.7 0.00 0.00 0.00 46
20260505123932 23 210 6.4 9.7 0.00 0.00 0.00 45
20260505123432 23 288 6.4 8.0 0.00 0.00 0.00 44
20260505122932 23 210 0.0 9.7 0.00 0.00 0.00 43
20260505122432 23 203 0.0 4.8 0.00 0.00 0.00 41
20260505121932 24 158 0.0 6.4 0.00 0.00 0.00 41
20260505121432 24 265 3.2 6.4 0.00 0.00 0.00 41
20260505120932 24 223 3.2 6.4 0.00 0.00 0.00 40
20260505120432 24 164 1.6 4.8 0.00 0.00 0.00 39
20260505115932 24 333 3.2 4.8 0.00 0.00 0.00 40
20260505115432 24 295 0.0 6.4 0.00 0.00 0.00 40
20260505114932 24 302 1.6 8.0 0.00 0.00 0.00 40
20260505114432 25 188 3.2 6.4 0.00 0.00 0.00 41
20260505113932 24 241 0.0 1.6 0.00 0.00 0.00 41
20260505113432 24 164 0.0 4.8 0.00 0.00 0.00 40
20260505112932 24 154 0.0 0.0 0.00 0.00 0.00 40
20260505112432 24 154 0.0 1.6 0.00 0.00 0.00 41
20260505111932 24 146 0.0 3.2 0.00 0.00 0.00 41
20260505111432 24 56 0.0 3.2 0.00 0.00 0.00 42
20260505110932 23 53 0.0 0.0 0.00 0.00 0.00 42
20260505110432 23 53 0.0 4.8 0.00 0.00 0.00 41
20260505101932 23 108 0.0 4.8 0.00 0.00 0.00 44
20260505101432 23 40 0.0 3.2 0.00 0.00 0.00 43
20260505100932 23 109 0.0 3.2 0.00 0.00 0.00 43
20260505100432 23 81 0.0 1.6 0.00 0.00 0.00 46
20260505095932 22 254 0.0 1.6 0.00 0.00 0.00 46
20260505095432 22 2 1.6 4.8 0.00 0.00 0.00 47
20260505094932 22 181 3.2 3.2 0.00 0.00 0.00 47
20260505094432 22 160 3.2 4.8 0.00 0.00 0.00 48
20260505093932 22 70 0.0 1.6 0.00 0.00 0.00 47
20260505093432 22 82 0.0 0.0 0.00 0.00 0.00 47
20260505092932 22 82 0.0 0.0 0.00 0.00 0.00 47
20260505092432 22 82 0.0 0.0 0.00 0.00 0.00 47
20260505091932 22 82 0.0 1.6 0.00 0.00 0.00 46
20260505091432 22 125 0.0 0.0 0.00 0.00 0.00 47
20260505090933 22 125 0.0 0.0 0.00 0.00 0.00 47
20260505090432 22 125 0.0 3.2 0.00 0.00 0.00 48
20260505085933 22 171 0.0 3.2 0.00 0.00 0.00 49
20260505085433 22 191 0.0 1.6 0.00 0.00 0.00 49
20260505084933 22 78 0.0 0.0 0.00 0.00 0.00 49
20260505084433 22 78 0.0 0.0 0.00 0.00 0.00 50
20260505083933 21 78 0.0 0.0 0.00 0.00 0.00 50
20260505083433 21 78 0.0 0.0 0.00 0.00 0.00 50
20260505082933 21 78 0.0 4.8 0.00 0.00 0.00 52
20260505082433 21 19 0.0 1.6 0.00 0.00 0.00 53
20260505081933 21 18 0.0 1.6 0.00 0.00 0.00 53
20260505081433 21 87 0.0 1.6 0.00 0.00 0.00 53
20260505080933 21 87 0.0 6.4 0.00 0.00 0.00 54
20260505080433 21 106 6.4 6.4 0.00 0.00 0.00 54
20260505075933 21 12 0.0 4.8 0.00 0.00 0.00 55
20260505075433 20 347 3.2 4.8 0.00 0.00 0.00 55
20260505074933 20 57 0.0 8.0 0.00 0.00 0.00 56
20260505074433 20 85 4.8 4.8 0.00 0.00 0.00 58
20260505073933 20 237 0.0 4.8 0.00 0.00 0.00 60
20260505073433 19 23 3.2 3.2 0.00 0.00 0.00 61
20260505072933 18 14 0.0 3.2 0.00 0.00 0.00 63
20260505072433 18 22 0.0 1.6 0.00 0.00 0.00 65
20260505071933 17 161 1.6 3.2 0.00 0.00 0.00 66
20260505071433 17 324 0.0 0.0 0.00 0.00 0.00 67
20260505070933 17 324 0.0 1.6 0.00 0.00 0.00 67
20260505070433 17 23 0.0 1.6 0.00 0.00 0.00 68
20260505065933 17 60 0.0 4.8 0.00 0.00 0.00 69
20260505065433 17 18 0.0 1.6 0.00 0.00 0.00 69
20260505064933 16 331 1.6 1.6 0.00 0.00 0.00 69
20260505064433 16 268 0.0 0.0 0.00 0.00 0.00 69
20260505063933 16 268 0.0 1.6 0.00 0.00 0.00 69
20260505063433 16 12 1.6 3.2 0.00 0.00 0.00 70
20260505062933 16 33 0.0 0.0 0.00 0.00 0.00 70
20260505062433 16 33 0.0 0.0 0.00 0.00 0.00 71
20260505061933 16 33 0.0 4.8 0.00 0.00 0.00 71
20260505061433 16 2 0.0 4.8 0.00 0.00 0.00 72
20260505060933 16 9 0.0 1.6 0.00 0.00 0.00 72
20260505060433 15 14 0.0 0.0 0.00 0.00 0.00 73
20260505055933 15 14 0.0 1.6 0.00 0.00 0.00 73
20260505055433 15 40 0.0 0.0 0.00 0.00 0.00 74
20260505054933 15 40 0.0 0.0 0.00 0.00 0.00 74